BEIDOU-3 M1

Last updated on Wed May 15 2019 03:07:46 GMT+0000 (Coordinated Universal Time)

1 43001U 17069A 19134.10440238 .00000095 00000-0 00000+0 0 9994 2 43001 55.0995 149.6511 0012230 283.8365 276.4412 1.86231959 10341

Satellite not in orbit

BEIDOU-3 M1